Location: Bettgenhausen
(50.6463°N, 7.5681°E)
Time: 02:29:09
(UTC+00:00)

Resurs 01 Rocket - Pass Details

Date: 27 February 2020
Orbit: 634 x 645 km, 98.0° (Epoch: 03 April)

Event Time Altitude Azimuth Distance (km) Brightness Sun altitude
Exits shadow 20:48:55 24° 298° (WNW) 1,350 3.8 -34.6°
Drops below altitude 10° 20:51:20 10° 326° (NW) 2,043 4.9 -34.9°
Sets 20:53:48 0° 338° (NNW) 2,956 5.8 -35.2°
